Погода в Лидоге

Россия / Хабаровский край     49°30′26″N   136°54′02″E
темп.,
°C
ветер,
м/с
пор.,
м/с
влажн.,
%
обл.,
%
осадки,
мм/ч
давл.,
гПа
погр.,
м
15 мая, сб
сб1501:00+11юв3674100 0.0 1009127
04:00+11вюв3772100 0.0 1007144
07:00+12вюв41262100 0.0 1004241
10:00+14ююз2765100 0.1 1003762
13:00+11ююв31090100 2.1 1000707
16:00+12ю71690100 9.3 997955
19:00+13юз71489100 3.4 9981082
22:00+10ююз615890 6.0 999556
16 мая, вс
вс1601:00+9ююз615890 0.0 998805
04:00+9юз7178280 0.0 9971103
07:00+10юз7157799 0.0 9981435
10:00+12зюз6126644 0.1 9981411
13:00+15зюз7145459 0.3 9982033
16:00+16з6135082 0.6 9982169
19:00+15юз513568 0.3 9981539
22:00+9ююз22810 0.3 100020
17 мая, пн
пн1701:00+7ююв22880 0.0 100021
04:00+6ююв23940 0.0 100156
07:00+9ю35790 0.0 1001215
10:00+17ююз47480 0.0 1001945
13:00+22юз59330 0.0 9991846
16:00+23юз613320 0.0 9983138
19:00+21юз612415 0.0 9971350
22:00+17ююз4145327 0.0 999548
18 мая, вт
вт1801:00+14ююз236972 0.0 100076
04:00+13ю267340 0.0 1000182
07:00+14ю28664 0.0 1001251
10:00+21ююз61048100 0.1 10001042
13:00+24юз61635100 0.0 9982538
16:00+27юз71532100 0.0 9963497
19:00+25ююз7163699 0.0 9951826
22:00+20ююз61751100 0.3 9961034
19 мая, ср
ср1901:00+17юз51466100 0.7 997491
04:00+11с129974 1.6 100153
07:00+14ююв23915 0.1 1003171
10:00+19юз3446100 0.1 1004964
13:00+19з6102580 0.0 10051716
16:00+21з5823100 0.0 10062347
19:00+18з3832100 0.0 1007351
22:00+13ю113666 0.0 100810